Regional Weather Roundup
Issued by NWS

Home | Current Version | Previous Version | Text Only | Print | Product List | Glossary Off
Versions: 1 2 3 4 5 6 7 8 9 10 11 12 13 14 15 16 17 18 19 20 21 22 23 24 25 26 27 28 29 30 31 32 33 34 35 36 37 38 39 40 41 42 43 44 45 46 47 48 49 50

000
ASUS43 KDMX 281201
RWRIA

WEATHER ROUNDUP FOR IOWA
NATIONAL WEATHER SERVICE DES MOINES IA
700 AM CDT FRI APR 28 2017

NOTE: "FAIR" INDICATES FEW OR NO CLOUDS BELOW 12,000 FEET WITH NO
SIGNIFICANT WEATHER AND/OR OBSTRUCTIONS TO VISIBILITY.

* - THESE STATIONS ARE NOT NWS STATIONS...THUS NOT UNDER NWS
QUALITY CONTROL.  THEY ALSO DO NOT REPORT WEATHER SUCH
AS PRECIPITATION OR FOG.

IAZ001>003-012>014-020>022-031>034-043>046-281300-
   NORTHWEST IOWA

CITY           SKY/WX    TMP DP  RH WIND       PRES   REMARKS
CARROLL *      CLOUDY    36  30  80 E12       29.86R WCI  27
CHEROKEE *     CLOUDY    30  28  92 CALM      29.86R
DENISON *      CLOUDY    36  28  75 E10       29.85R WCI  28
LE MARS *      MOCLDY    34  27  75 VRB6      29.86R WCI  29
ORANGE CITY *  CLOUDY    30  28  93 E5        29.85S WCI  25
SHELDON *      CLOUDY    28  27  93 E3        29.84R
SIOUX CITY     CLOUDY    34  29  82 E6        29.85R WCI  29
6HR MIN TEMP:  32; 6HR MAX TEMP:  39;

SPENCER        CLOUDY    26  23  88 CALM      29.85R
6HR MIN TEMP:  22; 6HR MAX TEMP:  31;

STORM LAKE *   CLOUDY    30  27  86 E10       29.84S WCI  21
$$

IAZ055>058-069>071-079>083-090>094-281300-
   SOUTHWEST IOWA

CITY           SKY/WX    TMP DP  RH WIND       PRES   REMARKS
ATLANTIC *     CLOUDY    39  32  75 NE10G21   29.81R WCI  32
AUDUBON *      CLOUDY    36  30  80 E10       29.84R WCI  28
CLARINDA *     CLOUDY    43  39  87 NE10      29.79R
COUNCIL BLFS * LGT RAIN  37  37 100 NE13      29.78F WCI  29
CRESTON *      CLOUDY    39  32  75 E20G28    29.78F WCI  30
HARLAN  *      CLOUDY    37  32  81 NE12      29.86R WCI  30
LAMONI         LGT RAIN  41  36  82 E13G18    29.77F
6HR MIN TEMP:  41; 6HR MAX TEMP:  49; 6HR PCP: TRACE;

RED OAK *      LGT RAIN  41  37  87 NE14G20   29.79R
SHENANDOAH *   RAIN      41  39  93 NE13      29.77R
$$

IAZ047>049-059>061-072>074-084-281300-
   CENTRAL IOWA

CITY           SKY/WX    TMP DP  RH WIND       PRES   REMARKS
AMES           CLOUDY    35  29  78 E8        29.86F WCI  29
6HR MIN TEMP:  33; 6HR MAX TEMP:  37;

ANKENY *       CLOUDY    36  28  75 NE8G15    29.87R WCI  29
BOONE *        CLOUDY    34  28  80 E13       29.85S WCI  25
CHARITON *     CLOUDY    41  34  75 NE13      29.84R
DES MOINES     CLOUDY    39  29  67 E10       29.86R WCI  32
6HR MIN TEMP:  39; 6HR MAX TEMP:  43;

GRINNELL*      CLOUDY    36  30  80 NE14      29.88R WCI  27
KNOXVILLE *    CLOUDY    41  32  70 E10G16    29.84S
MARSHALLTOWN   CLOUDY    34  29  82 E8        29.87S WCI  27
6HR MIN TEMP:  31; 6HR MAX TEMP:  35;

NEWTON *       CLOUDY    37  30  75 NE12      29.85S WCI  30
PELLA *        MOCLDY    39  33  79 E5        29.86S
PERRY *        CLOUDY    37  29  73 NE10G18   29.85S WCI  29
$$

IAZ004>006-015-016-023>025-035-036-281300-
   NORTH CENTRAL IOWA

CITY           SKY/WX    TMP DP  RH WIND       PRES   REMARKS
ALGONA *       CLOUDY    30  28  93 CALM      29.86R
CLARION *      CLOUDY    30  30 100 SE5       29.87R WCI  25
ESTHERVILLE    CLOUDY    26  26 100 SW5       29.85S WCI  20
6HR MIN TEMP:  23; 6HR MAX TEMP:  29;

FORT DODGE *   PTCLDY    28  25  86 E3        29.87S
MASON CITY     CLOUDY    27  26  96 N3        29.87S
6HR MIN TEMP:  22; 6HR MAX TEMP:  30;

FOREST CITY *    N/A     28  23  80 CALM      29.86R
WEBSTER CITY * CLOUDY    30  27  86 E3        29.85S
IOWA FALLS *     N/A     32  28  84 CALM      29.88S
$$

IAZ007>011-017>019-026>030-037>042-050>054-066-281300-
   NORTHEAST IOWA

CITY           SKY/WX    TMP DP  RH WIND       PRES   REMARKS
CEDAR RAPIDS   CLOUDY    35  31  85 N7        29.88R WCI  29
6HR MIN TEMP:  34; 6HR MAX TEMP:  37;

CHARLES CITY * CLOUDY    30  28  93 N6        29.87S WCI  24
DECORAH *      CLEAR     32  27  80 CALM      29.86R
DUBUQUE        CLEAR     33  29  85 N9        29.88S WCI  25
6HR MIN TEMP:  30; 6HR MAX TEMP:  33;

MONTICELLO *   CLOUDY    34  30  86 N6        29.89S WCI  29
WATERLOO       CLEAR     28  24  85 CALM      29.88S
6HR MIN TEMP:  26; 6HR MAX TEMP:  34;

$$

IAZ064-065-067-068-078-281300-
   EAST CENTRAL IOWA

CITY           SKY/WX    TMP DP  RH WIND       PRES   REMARKS
DAVENPORT      CLEAR     36  32  85 E5        29.90S WCI  32
6HR MIN TEMP:  34; 6HR MAX TEMP:  38;

IOWA CITY      PTCLDY    40  32  73 NE7       29.91R
6HR MIN TEMP:  38; 6HR MAX TEMP:  41;

MUSCATINE *    CLEAR     43  34  70 E6        29.90S
QUAD CITIES    CLEAR     39  36  89 E3        29.90S
6HR MIN TEMP:  37; 6HR MAX TEMP:  42;

$$

IAZ062-063-075>077-085>089-095>099-281300-
   SOUTHEAST IOWA

CITY           SKY/WX    TMP DP  RH WIND       PRES   REMARKS
BURLINGTON     PTCLDY    43  37  79 NE12      29.86R
6HR MIN TEMP:  42; 6HR MAX TEMP:  50; 6HR PCP: TRACE;

FAIRFIELD *    CLOUDY    39  32  75 NE10      29.86S WCI  32
FORT MADISON * CLOUDY    43  39  87 NE10      29.86S
KEOKUK *       CLOUDY    45  43  93 NE8G14    29.84R
OSKALOOSA *      N/A     38  33  81 E12       29.86R WCI  31
OTTUMWA        PTCLDY    40  35  83 E10       29.85S WCI  33
6HR MIN TEMP:  40; 6HR MAX TEMP:  43; 6HR PCP: TRACE;

WASHINGTON *   PTCLDY    39  36  87 NE7       29.90R WCI  34
$$

ABBREVIATIONS USED IN REMARKS
   TC - TEMPERATURES IN CELSIUS
  WCI - WIND CHILL INDEX
   HX - HEAT INDEX
  VSB - VISIBILITY
$$





USA.gov is the U.S. government's official web portal to all federal, state and local government web resources and services.